DELTA 2 R/B(1)

Last updated on Mon Sep 21 2026 00:02:08 GMT+0000 (Coordinated Universal Time)

1 20453U 90008B 26263.56914166 .00350177 49935-4 75989-3 0 9996 2 20453 35.5934 307.3932 0022512 310.3690 49.5094 15.96788691956793
UTC large
Height (km)
Speed (km/s)
/
Latitude / Longitude
Inclination (degrees)
Orbital Period (minutes)
Azimuth
Elevation
Range (km)
Doppler Factor

Next 0 passes for location: London (51.5072 / 0.1276)

No passes found over London.
DELTA 2 R/B(1)